TIME,DELAY(SENSOR),PRES,T(CTD),SAL,OXYGEN,RAWTEMP,T(OPTODE),TCPHASE,FLUOR,BETA(BETA700),BETA(BETA412),BETA(BETA440),CDOM,C(CSC),ED(ED412.40),ED(ED444.00),ED(ED489.70),ED(ED554.30),LU(LU411.80),LU(LU443.40),LU(LU489.60),LU(LU554.10),COMP,TILTX,TILTX(TILTY),CHECK
1353792455,5809,496.9100036621094000,6.2681999206542970,34.1459999084472660,70.0150527954101600,610.3521728515625000,6.2493400573730470,50.2604408264160160,52,105,90,80,80,15127,2147749174,2147421732,2148005952,2147874267,2147632841,2147076150,2148248036,2147199478,1922,4,13,29620
1353792576,5810,486.8599853515625000,6.3910999298095700,34.1332015991210940,73.9721069335937500,606.8026123046875000,6.3642978668212890,49.7272911071777340,53,104,87,79,79,15127,2147744868,2147418898,2148004068,2147874468,2147630720,2147074834,2148246665,2147199186,1892,4,13,41327
1353792732,5807,475.8399963378906000,6.4549999237060550,34.1250991821289060,78.2837829589843800,604.5244140625000000,6.4380149841308590,49.1755790710449200,52,104,86,80,80,15129,2147745270,2147420059,2148003081,2147874678,2147632868,2147077394,2148243053,2147203209,1283,4,13,57636
1353792908,5810,465.1300048828125000,6.6357002258300780,34.1096000671386700,84.7085266113281200,599.2108154296875000,6.6097598075866700,48.3555412292480500,52,103,88,81,80,15127,2147743734,2147421577,2148005312,2147872694,2147630016,2147076617,2148243291,2147197174,1515,4,13,32823
1353793088,5807,453.1000061035156000,6.8744997978210450,34.0886001586914060,99.4898910522461000,591.2670288085938000,6.8660130500793460,46.6132698059082000,51,103,88,80,79,15128,2147745325,2147423488,2148006089,2147874587,2147630381,2147082432,2148248411,2147200329,1832,4,13,62484
1353793209,5808,441.7200012207031000,7.1075000762939450,34.0891990661621100,106.6464996337890600,584.1995849609375000,7.0935020446777340,45.7608718872070300,51,104,85,81,77,15129,2147746761,2147419757,2148002084,2147873398,2147630784,2147080722,2148243648,2147199414,1759,4,13,44670
1353793321,5810,430.2500000000000000,7.2655000686645510,34.0867996215820300,112.4924011230468800,579.5219116210938000,7.2438220977783200,45.1024398803710940,50,105,84,79,78,15129,2147744219,2147420809,2148005275,2147872896,2147629531,2147083501,2148241316,2147200164,360,4,13,31298
1353793431,5806,418.2099914550781000,7.4615001678466800,34.0890007019043000,117.0056991577148400,572.2152099609375000,7.4782280921936035,44.5401916503906250,51,104,85,80,77,15126,2147747995,2147421110,2148003785,2147870125,2147624237,2147083629,2148241782,2147202560,473,5,12,50879
1353793530,5809,407.2600097656250000,7.6851000785827640,34.0858001708984400,124.7714004516601600,566.4260864257812000,7.6636137962341310,43.7100105285644500,50,104,86,81,77,15127,2147741385,2147424164,2148004864,2147874761,2147628169,2147084571,2148238281,2147201325,725,4,13,6375
1353793662,5808,393.2500000000000000,7.7987999916076660,34.0887985229492200,128.2946014404297000,562.6713867187500000,7.7836928367614750,43.3237380981445300,50,104,87,82,76,15127,2147741019,2147422372,2148004370,2147875574,2147624640,2147089654,2148240091,2147206098,1392,4,13,14638
1353793791,5809,382.4400024414062500,8.0394001007080080,34.0923995971679700,132.6858978271484400,555.2514038085938000,8.0206470489501950,42.8014793395996100,50,107,87,80,76,15127,2147743094,2147422372,2148003044,2147871323,2147626688,2147090880,2148235044,2147201782,1730,4,13,35109
1353793936,5806,371.9700012207031000,8.2613000869750980,34.0938987731933600,138.7563018798828000,548.4345703125000000,8.2379312515258790,42.1524887084960940,50,103,85,79,75,15129,2147740617,2147423414,2148001654,2147875474,2147628342,2147089737,2148238692,2147199003,893,4,13,13524
1353794112,5805,360.9899902343750000,8.4082002639770500,34.0960006713867200,141.2413024902343800,543.6804809570312000,8.3892364501953120,41.8574981689453100,50,103,91,80,75,15130,2147736640,2147423789,2148004123,2147871488,2147624329,2147088091,2148237184,2147198217,672,4,13,20149
1353794309,5807,348.7399902343750000,8.6881999969482420,34.0922012329101560,149.8020019531250000,534.8504028320312000,8.6697883605957030,40.9944496154785160,50,104,88,79,73,15130,2147741229,2147420342,2148006473,2147876507,2147620288,2147093979,2148234788,2147200612,3186,4,13,51597
1353794452,5807,337.6400146484375000,9.0537004470825200,34.0870018005371100,162.8717956542968800,523.0443115234375000,9.0439395904541020,39.7637710571289060,50,104,87,81,73,15130,2147736576,2147422025,2148004635,2147874038,2147619684,2147093193,2148235968,2147200795,2550,4,13,34442
1353794620,5807,323.4800109863281000,9.3723001480102540,34.0961990356445300,173.7297058105468800,512.6126098632812000,9.3736581802368160,38.7855987548828100,50,106,91,80,73,15126,2147735542,2147421787,2148008338,2147874203,2147618066,2147102464,2148230326,2147198144,3009,4,13,60985
1353794719,5810,313.1099853515625000,9.8301000595092770,34.1039009094238300,176.7313995361328000,499.0846862792969000,9.8000640869140620,38.3411483764648440,49,106,88,81,73,15126,2147737444,2147421412,2148009142,2147873910,2147620251,2147099282,2148229449,2147202916,2743,4,13,17973
1353794829,5810,301.8699951171875000,10.1660003662109380,34.1110000610351560,186.1475982666015600,488.0819091796875000,10.1459398269653320,37.5104408264160160,49,106,86,81,71,15124,2147731968,2147419968,2148014354,2147874834,2147612288,2147106002,2148225014,2147202468,2644,3,13,50248
1353794941,5808,291.3699951171875000,10.5857000350952150,34.1178016662597660,197.6750946044922000,474.2283020019531000,10.5802803039550780,36.5358085632324200,49,107,89,81,70,15126,2147731337,2147425664,2148018084,2147871926,2147613074,2147109869,2148229266,2147204278,3261,4,13,46163
1353795073,5807,280.9599914550781000,10.8423995971679690,34.1232986450195300,200.6558074951172000,466.2045898437500000,10.8312902450561520,36.2186088562011700,49,106,85,82,71,15124,2147731675,2147428224,2148023323,2147872886,2147609307,2147111661,2148232804,2147202486,597,4,13,45567
1353795240,5805,269.9599914550781000,11.8811998367309570,34.1450996398925800,208.3251953125000000,433.2453002929687500,11.8584003448486330,35.2232093811035160,48,106,89,81,69,15125,2147729124,2147429147,2148035885,2147873344,2147606016,2147118912,2148232612,2147204681,1894,4,14,49949
1353795416,5810,258.5400085449219000,12.4404001235961910,34.1758003234863300,205.7908020019531200,415.0972900390625000,12.4214496612548830,35.0837287902832000,49,107,88,80,68,15119,2147726720,2147435876,2148050322,2147877202,2147602358,2147129216,2148233133,2147204224,2977,3,13,11926
1353795573,5809,245.0800018310547000,13.0262002944946290,34.2095985412597660,209.6305999755859400,393.7665100097656000,13.0812597274780270,34.5253791809082000,48,104,88,79,68,15121,2147729572,2147446034,2148084050,2147874468,2147598500,2147138240,2148243913,2147208859,1469,3,14,45623
1353795683,5808,233.3300018310547000,14.0474004745483400,34.2851982116699200,211.5708007812500000,361.3233947753906000,14.0811796188354500,33.9179916381835940,49,102,89,79,68,15122,2147727643,2147459812,2148122496,2147873554,2147596745,2147150098,2148267702,2147210276,364,3,14,49716
1353795806,5807,221.9400024414062500,15.3915996551513670,34.4249000549316400,213.6757049560547000,318.3926086425781000,15.3990097045898440,33.1609001159668000,50,102,87,79,67,15117,2147725412,2147483894,2148175643,2147873901,2147591341,2147166994,2148282944,2147215049,2099,4,14,19654
1353795938,5806,212.0099945068359400,15.8434000015258790,34.4944992065429700,217.4165954589843800,303.4700012207031000,15.8559904098510740,32.7388000488281250,49,104,89,80,67,15117,2147724854,2147512219,2148245750,2147874816,2147586898,2147195291,2148312704,2147218450,1628,4,14,31778
1353796147,5805,197.8699951171875000,17.1833000183105470,34.6777992248535160,220.0883941650390600,259.4917907714844000,17.2006092071533200,31.9702301025390620,49,102,90,80,65,15113,2147738889,2147576219,2148383542,2147876178,2147587163,2147245915,2148375396,2147223186,3148,4,14,35380
1353796225,5804,190.5700073242187500,17.6872997283935550,34.7560005187988300,222.1000061035156200,242.3571014404297000,17.7239704132080080,31.6257591247558600,50,101,88,80,65,15113,2147745216,2147618770,2148471460,2147873901,2147585362,2147280073,2148419373,2147227574,3439,2,15,52019
1353796280,5805,184.9900054931640600,18.2523002624511720,34.8297996520996100,221.0973968505859400,225.2803039550781200,18.2454700469970700,31.4423503875732420,50,101,86,81,65,15113,2147755501,2147662189,2148567552,2147873764,2147591067,2147306541,2148466980,2147228608,2720,3,14,3819
1353796335,5805,179.3300018310547000,18.3535995483398440,34.8541984558105500,221.6640930175781200,221.5606994628906200,18.3590602874755860,31.3618202209472660,50,103,88,80,65,15111,2147770294,2147716534,2148681819,2147871506,2147598034,2147347154,2148523026,2147235785,2297,3,14,50974
1353796390,5806,173.4900054931640600,18.5464000701904300,34.8829002380371100,221.4476013183593800,215.3793029785156200,18.5478305816650400,31.2886600494384770,50,101,86,80,65,15105,2147792822,2147796406,2148837467,2147873737,2147604736,2147394459,2148600109,2147241938,1780,3,14,64735
1353796464,5809,166.0299987792968800,18.8742008209228500,34.9413986206054700,222.9338989257812500,204.0787048339843800,18.8929901123046880,31.0583591461181640,50,103,89,80,64,15110,2147826733,2147899254,2149042614,2147876635,2147619236,2147470509,2148699474,2147249782,1833,2,15,21288
1353796519,5807,161.0500030517578000,18.9451007843017580,34.9506988525390600,223.7220001220703000,202.3179931640625000,18.9467697143554700,30.9939708709716800,50,103,86,79,63,15110,2147860461,2147990445,2149214116,2147876050,2147634048,2147529014,2148792795,2147253476,1557,2,15,887
1353796574,5807,156.2299957275390600,19.1411991119384770,34.9678993225097660,222.0917053222656200,196.5634002685547000,19.1225700378417970,30.9998302459716800,52,104,88,79,64,15102,2147896356,2148090889,2149405321,2147879643,2147653302,2147591597,2148885522,2147258569,1513,3,14,26972
1353796629,5805,151.8600006103515600,19.5111999511718750,35.0173988342285160,221.4324035644531200,185.1421966552734400,19.4715690612792970,30.8796405792236330,53,106,88,80,64,15103,2147943387,2148196132,2149593033,2147878692,2147672438,2147658898,2148985609,2147267200,1946,3,15,8097
1353796684,5804,147.8800048828125000,19.7996997833251950,35.0533981323242200,221.3128967285156200,174.8381958007812500,19.7865600585937500,30.7476406097412100,56,103,88,80,64,15098,2147991488,2148298075,2149781888,2147880832,2147692461,2147727012,2149076617,2147274029,2508,2,15,7020
1353796739,5808,144.1799926757812500,19.8384990692138670,35.0553016662597660,221.4562072753906200,172.7158050537109400,19.8514595031738280,30.7121391296386720,57,104,89,81,64,15098,2148050688,2148423716,2150003584,2147885540,2147720036,2147798061,2149188854,2147282322,2303,2,15,15878
1353796817,5808,139.5599975585937500,20.0848999023437500,35.0740013122558600,220.8659973144531200,165.0475006103515600,20.0859909057617200,30.6398601531982420,60,106,91,80,64,15091,2148145042,2148608914,2150334272,2147886262,2147758564,2147911396,2149342921,2147290989,1753,2,15,30795
1353796905,5807,135.5299987792968800,20.4710998535156250,35.1213989257812500,221.3088989257812500,153.1394958496093800,20.4503993988037100,30.4593391418457030,65,106,88,80,64,15088,2148243702,2148798034,2150656484,2147888630,2147804470,2148013787,2149485421,2147305682,1297,3,15,25172
1353797004,5806,131.7400054931640600,20.6760005950927730,35.1593017578125000,222.6867980957031200,146.7288970947265600,20.6466808319091800,30.3045597076416000,68,111,90,82,63,15083,2148358354,2148968484,2150947309,2147895862,2147851675,2148114130,2149628891,2147318400,1917,2,15,34018
1353797138,5807,128.2299957275390600,20.9227008819580080,35.1683006286621100,223.6004943847656200,138.2330017089843800,20.9069595336914060,30.1468791961669920,74,110,87,81,62,15075,2148501988,2149144265,2151228964,2147900992,2147906121,2148206089,2149737179,2147327753,2599,2,15,62006
1353797391,5808,124.3000030517578100,21.2609996795654300,35.1824989318847660,226.6260986328125000,126.9070968627929700,21.2541904449462900,29.8488101959228500,90,118,89,83,62,15051,2148804324,2149572854,2151923748,2147909275,2148027547,2148391149,2149989650,2147349220,862,2,15,64742
1353797509,5808,119.1699981689453100,21.3645992279052730,35.1930999755859400,227.3670959472656200,123.6087036132812500,21.3553791046142580,29.7695598602294920,93,115,90,83,63,15049,2149237010,2150178934,2152869412,2147926098,2148194788,2148690550,2150388836,2147383872,3545,2,15,3353
1353797575,5803,115.6100006103515600,21.4290008544921880,35.1982002258300800,228.0415039062500000,121.1495971679687500,21.4308395385742200,29.7049903869628900,97,118,89,84,62,15049,2149626413,2150711606,2153681618,2147944448,2148350052,2148941284,2150724233,2147412589,3576,2,16,21518
1353797652,5809,111.8099975585937500,21.5373992919921880,35.1969985961914060,228.8744049072265600,118.1023025512695300,21.5243701934814450,29.6247806549072270,103,116,88,83,63,15037,2150211830,2151470107,2154821010,2147966738,2148581814,2149287762,2151175268,2147453037,451,3,15,58489
1353797753,5808,107.5199966430664000,21.7761001586914060,35.1997985839843750,229.6455993652343800,112.8960037231445300,21.6842308044433600,29.5203895568847660,110,120,90,82,61,15027,2151158107,2152622619,2156453778,2148009042,2148939428,2149812004,2151805001,2147515510,442,2,15,44534
1353797863,5812,104.1900024414062500,22.0993995666503900,35.2487983703613300,232.5818023681640600,100.8905029296875000,22.0531692504882800,29.2259502410888670,122,119,87,83,63,15017,2152025508,2153640896,2157753627,2148041664,2149274432,2150218925,2152253906,2147561993,1013,3,16,20557
1353798039,5812,100.3000030517578100,22.3096008300781250,35.2683982849121100,238.6790924072265600,92.9628295898437500,22.2970600128173830,28.8409805297851560,136,121,90,83,61,14992,2153581549,2155445970,2160037549,2148102994,2149860973,2150910372,2153071405,2147644032,2249,2,15,49593
1353798117,5811,98.2500000000000000,22.4815998077392580,35.2546005249023440,241.8558959960937500,87.4986267089843800,22.4652900695800780,28.6277408599853500,136,121,90,82,59,14986,2154489737,2156461714,2161186980,2148133796,2150211227,2151292589,2153467081,2147687606,2000,2,16,18486
1353798172,5806,96.3499984741211000,22.5816993713378900,35.2391014099121100,242.6320037841797000,83.8144378662109400,22.5787696838378900,28.5465202331542970,139,122,89,83,61,14982,2155426669,2157501220,2162410450,2148173906,2150552402,2151655945,2153865179,2147734866,2377,2,15,61417
1353798227,5809,94.3700027465820300,22.7250003814697270,35.2330017089843750,243.7682952880859400,79.7386093139648400,22.7043800354003900,28.4443893432617200,135,123,89,84,60,14978,2156605476,2158815104,2164010496,2148222473,2150978267,2152155072,2154442441,2147792694,2955,2,16,2678
1353798282,5808,92.6500015258789000,23.0114002227783200,35.2113990783691400,244.2640991210937500,71.0040588378906200,22.9737892150878900,28.3129501342773440,121,127,90,83,60,14983,2157410075,2159680429,2164955904,2148261769,2151311442,2152530596,2154851593,2147834724,2886,2,16,8260
1353798337,5809,91.5199966430664000,23.1284999847412100,35.2048988342285160,244.9604034423828000,67.3199462890625000,23.0875091552734380,28.2363090515136720,118,124,92,83,62,14991,2158071762,2160437504,2165923172,2148302089,2151592667,2152875117,2155244562,2147876315,331,2,15,52314
1353798448,5804,88.9100036621093800,23.1851997375488280,35.2064018249511700,245.8842926025390600,64.3513336181640600,23.1791896820068360,28.1587104797363280,100,125,90,83,61,14983,2159723913,2162185792,2167836388,2148393627,2152317293,2153711204,2156128448,2147974226,3044,2,16,57711
1353798503,5807,86.7099990844726600,23.2320995330810550,35.2037010192871100,246.4203948974609400,62.8285217285156250,23.2262306213378900,28.1161308288574220,98,126,92,85,59,14989,2161403803,2163979209,2169698066,2148491894,2153063597,2154546029,2156972260,2148072758,2736,1,16,12401
1353798558,5807,84.7500000000000000,23.3516006469726560,35.2028007507324200,246.5348052978515600,59.2236900329589840,23.3376293182373050,28.0663795471191400,97,126,92,85,59,14984,2162951990,2165553362,2171356973,2148567744,2153774765,2155318902,2157769197,2148152731,2862,1,16,9084
1353798624,5807,83.3199996948242200,23.5969009399414060,35.2016983032226560,246.7835998535156200,53.2927284240722660,23.5210399627685550,27.9819297790527340,95,128,93,85,59,14974,2163993572,2166642596,2172353261,2148609792,2154344228,2155912932,2158316324,2148205842,2501,2,16,32959
1353798769,5806,81.1500015258789000,23.8330001831054700,35.2109985351562500,247.7375030517578000,44.0863990783691400,23.8060493469238280,27.8266506195068360,86,129,95,84,60,14968,2167503323,2170044726,2175883017,2148788891,2156175542,2157867291,2160180589,2148403172,3486,2,16,38011
1353798846,5806,79.4499969482421900,23.9902992248535160,35.2256011962890600,248.1114959716797000,38.4916000366210940,23.9794502258300780,27.7416801452636720,88,129,93,87,57,14967,2170138368,2172632539,2178429229,2148933001,2157628361,2159362313,2161494345,2148538724,212,2,15,20193
1353798945,5808,77.3899993896484400,24.3673000335693360,35.2271003723144500,247.6941070556640600,28.3660202026367200,24.2936706542968750,27.6349792480468750,86,128,90,85,60,14961,2171829467,2173904292,2178986770,2148997449,2158918061,2160469568,2162280429,2148615661,3203,2,15,19295
1353799045,5808,75.1500015258789000,24.6467990875244140,35.2075996398925800,245.0559997558593800,18.7671909332275400,24.5920295715332030,27.6313209533691400,84,129,92,84,58,14964,2176338157,2178888502,2184550994,2149287725,2161573156,2163296960,2164929252,2148906093,657,2,16,32553
1353799111,5806,73.1299972534179700,24.8423995971679700,35.2084007263183600,242.9174957275390600,11.7587404251098630,24.8101902008056640,27.6388607025146500,84,125,92,85,57,14964,2178595702,2181066020,2186657179,2149539373,2163245997,2164896649,2166288347,2149077467,298,2,16,45279
1353799199,5806,71.6800003051757800,24.8607006072998050,35.2070007324218750,241.7106018066406200,10.4300603866577150,24.8515796661376950,27.6756095886230470,84,124,93,86,57,14970,2180590729,2183234313,2189006848,2149690770,2164795849,2166502875,2167811026,2149227702,3501,2,16,59514
1353799399,5809,68.8099975585937500,25.0083007812500000,35.2121009826660160,239.3007049560547000,5.5976538658142090,25.0021991729736330,27.7232093811035160,75,127,93,85,58,14966,2165896018,2165562541,2166700726,2148704210,2158322358,2158086445,2158063277,2148243785,3376,2,16,14095
1353799454,5811,66.6299972534179700,25.0391006469726560,35.2132987976074200,238.9073028564453000,4.7322931289672850,25.0291900634765620,27.7301101684570300,77,126,92,86,57,14972,2188987840,2192215085,2198595785,2150712064,2171954304,2173181878,2173053366,2149870144,40,2,15,50531
1353799509,5806,64.2500000000000000,25.1357994079589840,35.2212982177734400,238.2848968505859400,1.7588499784469604,25.1219501495361330,27.7214107513427730,76,125,91,85,56,14972,2193925330,2197181586,2203239890,2151105572,2176730066,2177876205,2176994002,2150271113,613,2,16,60090
1353799564,5809,62.0099983215332000,25.1910991668701170,35.2261009216308600,237.5287933349609400,-0.1393585950136185,25.1811904907226560,27.7320098876953120,74,126,91,86,56,14971,2198317979,2202151332,2208419629,2151881033,2180681206,2181470409,2179670902,2150655643,1007,2,16,28372
1353799619,5809,59.9199981689453100,25.2259006500244140,35.2305984497070300,237.2998962402343800,-1.4740350246429443,25.2228603363037100,27.7258090972900400,72,126,92,83,58,14967,2201210843,2204836726,2211016896,2152328384,2184244461,2184752329,2182153691,2150935323,491,1,16,54504
1353799697,5810,56.4799995422363300,25.2922000885009770,35.2417984008789060,236.8567962646484400,-3.8129389286041260,25.2959003448486330,27.7169990539550780,69,124,93,83,58,14960,2208542994,2212369453,2218330294,2153627154,2191946011,2191971099,2187901421,2151691721,2949,1,16,52593
1353799752,5808,53.5200004577636700,25.3337001800537100,35.2476997375488300,236.7507934570312500,-5.0410060882568360,25.3342704772949220,27.7067298889160160,69,125,91,86,56,14951,2215131300,2219443090,2225239753,2155102738,2199302043,2198734729,2192950500,2152418112,2557,1,17,51683
1353799807,5810,50.5699996948242200,25.3675003051757800,35.2513008117675800,236.5263061523437500,-6.0659861564636230,25.3663005828857420,27.7042198181152340,68,123,91,86,60,14961,2223362029,2228447972,2234669714,2156832054,2207639049,2206513371,2198789522,2153268086,2410,1,16,49744
1353799862,5809,47.7900009155273440,25.4230003356933600,35.2580986022949200,236.1961975097656200,-7.7576642036437990,25.4191799163818360,27.6982498168945300,69,123,92,85,56,14964,2233415588,2239150528,2245224896,2159230628,2217743186,2216045010,2206114797,2154425856,2238,1,16,20200
1353799917,5807,45.1500015258789060,25.4610004425048830,35.2625007629394500,235.9880065917968800,-8.9275093078613280,25.4557495117187500,27.6933708190917970,67,123,92,86,58,14969,2244324269,2251388489,2258100461,2162698313,2229382820,2226956973,2214227108,2155945901,1935,1,16,31204
1353799972,5807,42.4500007629394500,25.4703006744384770,35.2634010314941400,236.0366973876953000,-9.3178510665893550,25.4679603576660160,27.6863307952880860,65,122,90,86,56,14970,2255539245,2263457124,2270488548,2166608402,2239940397,2236681764,2221419053,2157198811,1690,1,16,15849
1353800029,5806,39.5800018310546900,25.5109996795654300,35.2621994018554700,235.8544006347656200,-10.5328397750854500,25.5059604644775400,27.6796092987060550,62,122,93,84,54,14973,2264811072,2272977572,2279949403,2169638564,2252576192,2248282358,2229679616,2158757760,1673,1,16,16535
1353800084,5809,36.8300018310546900,25.5266990661621100,35.2622985839843750,235.9877929687500000,-11.2092695236206050,25.5271091461181640,27.6652908325195300,60,124,92,83,58,14966,2275827227,2284690020,2292366262,2175356297,2266878125,2261690761,2239601590,2160854930,2009,1,16,22366
1353800139,5805,34.0999984741210940,25.5298004150390620,35.2509002685546900,236.0879974365234400,-11.2618904113769530,25.5287609100341800,27.6601009368896500,60,124,92,85,58,14955,2288446838,2297442898,2305157147,2182168594,2281985142,2275764681,2249982436,2163348873,2152,1,16,47898
1353800194,5807,31.4599990844726560,25.5188007354736330,35.2439002990722660,236.0897979736328000,-10.9741201400756840,25.5197601318359380,27.6636695861816400,58,124,92,86,57,14955,2280911424,2287530825,2293084224,2181963446,2285068370,2277380169,2249564224,2163498944,2194,2,15,48268
1353800249,5809,28.7500000000000000,25.5132007598876950,35.2374992370605500,235.9822998046875000,-10.8660402297973630,25.5163803100585940,27.6699104309082030,56,121,94,85,55,14957,2315150637,2326277659,2336956982,2198808493,2315224173,2306391497,2272043145,2168857782,2368,3,16,4010
1353800304,5806,26.0200004577636720,25.5137004852294920,35.2368011474609400,236.1062927246093800,-11.1029596328735350,25.5237903594970700,27.6612701416015620,56,122,91,86,57,14960,2327111835,2337812077,2349498340,2209792713,2333970980,2323532361,2284872301,2172389110,2696,1,17,58988
1353800361,5807,23.1399993896484380,25.5193996429443360,35.2355995178222660,236.2687072753906200,-11.3404703140258790,25.5312194824218750,27.6510391235351560,53,122,93,85,54,14957,2352240722,2365258706,2380927058,2231151076,2361170633,2349587456,2304923565,2178624685,2953,3,16,32559
